Time,TemperatureF,DewpointF,PressureIn,WindDirection,WindDirectionDegrees,WindSpeedMPH,WindSpeedGustMPH,Humidity,HourlyPrecipIn,Conditions,Clouds,dailyrainin,SoftwareType,DateUTC
2013-02-08 00:03:00,35.1,32.7,29.93,NW,314,11.0,20.0,91,0.00,,,0.13,meteohub,2013-02-08 06:03:00,
2013-02-08 00:08:00,35.1,32.7,29.93,WNW,302,7.0,20.0,91,0.00,,,0.00,meteohub,2013-02-08 06:08:00,
2013-02-08 00:13:00,35.1,32.7,29.93,WNW,292,12.0,16.0,91,0.00,,,0.00,meteohub,2013-02-08 06:13:00,
2013-02-08 00:18:00,35.1,32.7,29.94,NW,305,10.0,16.0,91,0.00,,,0.00,meteohub,2013-02-08 06:18:00,
2013-02-08 00:23:00,35.1,32.4,29.94,WNW,299,8.0,15.0,90,0.00,,,0.00,meteohub,2013-02-08 06:23:00,
2013-02-08 00:28:00,35.1,32.4,29.94,NNW,338,10.0,15.0,90,0.00,,,0.00,meteohub,2013-02-08 06:28:00,
2013-02-08 00:33:00,34.9,32.2,29.94,NNE,28,10.0,18.0,90,0.00,,,0.00,meteohub,2013-02-08 06:33:00,
2013-02-08 00:38:00,34.9,32.2,29.94,WNW,303,15.0,19.0,90,0.00,,,0.00,meteohub,2013-02-08 06:38:00,
2013-02-08 00:43:00,34.9,32.2,29.94,NW,309,9.0,19.0,90,0.00,,,0.00,meteohub,2013-02-08 06:43:00,
2013-02-08 00:49:00,34.7,32.0,29.95,NW,317,12.0,19.0,90,0.00,,,0.00,meteohub,2013-02-08 06:49:00,
2013-02-08 00:54:00,34.7,32.0,29.95,NW,315,15.0,18.0,90,0.00,,,0.00,meteohub,2013-02-08 06:54:00,
2013-02-08 00:59:00,34.5,31.8,29.95,NW,311,11.0,20.0,90,0.00,,,0.00,meteohub,2013-02-08 06:59:00,
2013-02-08 01:04:00,34.5,31.8,29.95,WNW,301,12.0,20.0,90,0.00,,,0.00,meteohub,2013-02-08 07:04:00,
2013-02-08 01:09:00,34.5,31.8,29.96,NW,304,16.0,20.0,90,0.00,,,0.00,meteohub,2013-02-08 07:09:00,
2013-02-08 01:14:00,34.3,31.6,29.96,NNW,335,10.0,19.0,90,0.00,,,0.00,meteohub,2013-02-08 07:14:00,
2013-02-08 01:19:00,34.3,31.6,29.96,NW,313,5.0,19.0,90,0.00,,,0.00,meteohub,2013-02-08 07:19:00,
2013-02-08 01:24:00,34.3,31.6,29.96,WNW,299,12.0,23.0,90,0.00,,,0.00,meteohub,2013-02-08 07:24:00,
2013-02-08 01:29:00,34.3,31.6,29.96,NW,315,14.0,23.0,90,0.00,,,0.00,meteohub,2013-02-08 07:29:00,
2013-02-08 01:34:00,34.3,31.5,29.96,NW,320,12.0,24.0,89,0.00,,,0.00,meteohub,2013-02-08 07:34:00,
2013-02-08 01:39:00,34.3,31.5,29.97,NW,314,12.0,24.0,89,0.00,,,0.00,meteohub,2013-02-08 07:39:00,
2013-02-08 01:44:00,34.3,31.5,29.97,WNW,292,18.0,26.0,89,0.00,,,0.00,meteohub,2013-02-08 07:44:00,
2013-02-08 01:50:00,34.3,31.5,29.97,WNW,292,13.0,26.0,89,0.00,,,0.00,meteohub,2013-02-08 07:50:00,
2013-02-08 01:55:00,34.2,31.3,29.97,WNW,296,14.0,21.0,89,0.00,,,0.00,meteohub,2013-02-08 07:55:00,
2013-02-08 02:00:00,34.2,31.3,29.97,NNW,333,13.0,22.0,89,0.00,,,0.00,meteohub,2013-02-08 08:00:00,
2013-02-08 02:05:00,34.2,31.3,29.98,NNW,348,13.0,22.0,89,0.00,,,0.00,meteohub,2013-02-08 08:05:00,
2013-02-08 02:10:00,34.2,31.3,29.98,NNW,332,14.0,22.0,89,0.00,,,0.00,meteohub,2013-02-08 08:10:00,
2013-02-08 02:15:00,34.2,31.3,29.98,NNW,336,7.0,22.0,89,0.00,,,0.00,meteohub,2013-02-08 08:15:00,
2013-02-08 02:20:00,34.0,31.1,29.98,NW,319,10.0,22.0,89,0.00,,,0.00,meteohub,2013-02-08 08:20:00,
2013-02-08 02:25:00,34.0,31.1,29.98,WNW,302,10.0,21.0,89,0.00,,,0.00,meteohub,2013-02-08 08:25:00,
2013-02-08 02:30:00,34.0,31.1,29.99,West,280,13.0,21.0,89,0.00,,,0.00,meteohub,2013-02-08 08:30:00,
2013-02-08 02:35:00,34.0,31.1,29.99,WNW,290,14.0,21.0,89,0.00,,,0.00,meteohub,2013-02-08 08:35:00,
2013-02-08 02:40:00,34.0,31.1,29.99,NW,319,14.0,21.0,89,0.00,,,0.00,meteohub,2013-02-08 08:40:00,
2013-02-08 02:46:00,34.0,31.1,29.99,North,-999,-999.0,21.0,89,0.00,,,0.00,meteohub,2013-02-08 08:46:00,
2013-02-08 02:51:00,34.0,31.1,29.99,North,-999,-999.0,16.0,89,0.00,,,0.00,meteohub,2013-02-08 08:51:00,
2013-02-08 13:53:00,33.1,28.4,30.27,North,-999,-999.0,-999.0,83,-99.99,,,0.00,meteohub,2013-02-08 19:53:00,
2013-02-08 13:58:00,32.9,28.2,30.27,NW,314,7.0,-999.0,83,0.00,,,0.00,meteohub,2013-02-08 19:58:00,
2013-02-08 14:03:00,33.1,28.4,30.27,WNW,299,6.0,14.0,83,0.00,,,0.00,meteohub,2013-02-08 20:03:00,
2013-02-08 14:08:00,33.1,28.2,30.27,WNW,298,13.0,14.0,82,0.00,,,0.00,meteohub,2013-02-08 20:08:00,
2013-02-08 14:13:00,33.1,28.4,30.27,NW,309,7.0,19.0,83,0.00,,,0.00,meteohub,2013-02-08 20:13:00,
2013-02-08 14:18:00,33.3,28.4,30.27,NW,325,12.0,19.0,82,0.00,,,0.00,meteohub,2013-02-08 20:18:00,
2013-02-08 14:24:00,33.3,28.4,30.27,WNW,300,6.0,19.0,82,0.00,,,0.00,meteohub,2013-02-08 20:24:00,
2013-02-08 14:29:00,33.3,28.4,30.27,WNW,292,13.0,14.0,82,0.00,,,0.00,meteohub,2013-02-08 20:29:00,
2013-02-08 14:34:00,33.3,28.4,30.28,NNW,338,10.0,15.0,82,0.00,,,0.00,meteohub,2013-02-08 20:34:00,
2013-02-08 14:39:00,33.1,28.2,30.28,NNW,337,9.0,15.0,82,0.00,,,0.00,meteohub,2013-02-08 20:39:00,
2013-02-08 14:44:00,33.1,28.2,30.28,WNW,303,7.0,16.0,82,0.00,,,0.00,meteohub,2013-02-08 20:44:00,
2013-02-08 14:49:00,33.1,28.2,30.28,NNW,340,10.0,16.0,82,0.00,,,0.00,meteohub,2013-02-08 20:49:00,
2013-02-08 14:54:00,32.9,28.0,30.29,NNW,331,9.0,15.0,82,0.00,,,0.00,meteohub,2013-02-08 20:54:00,
2013-02-08 14:59:00,32.9,28.0,30.29,North,350,11.0,15.0,82,0.00,,,0.00,meteohub,2013-02-08 20:59:00,
2013-02-08 15:05:00,32.9,28.0,30.29,North,350,11.0,14.0,82,0.00,,,0.00,meteohub,2013-02-08 21:05:00,
2013-02-08 15:10:00,32.9,28.0,30.30,North,-999,-999.0,14.0,82,0.00,,,0.00,meteohub,2013-02-08 21:10:00,
2013-02-08 15:59:00,32.5,28.2,30.30,North,-999,-999.0,-999.0,84,0.00,,,0.00,meteohub,2013-02-08 21:59:00,
2013-02-08 16:04:00,32.7,28.4,30.30,North,-999,-999.0,-999.0,84,0.00,,,0.00,meteohub,2013-02-08 22:04:00,
2013-02-08 16:09:00,32.7,28.4,30.31,NNW,346,10.0,-999.0,84,0.00,,,0.00,meteohub,2013-02-08 22:09:00,
2013-02-08 16:14:00,32.7,28.4,30.31,NNW,336,5.0,11.0,84,0.00,,,0.00,meteohub,2013-02-08 22:14:00,
2013-02-08 16:19:00,32.7,28.4,30.31,WNW,286,4.0,11.0,84,0.00,,,0.00,meteohub,2013-02-08 22:19:00,
2013-02-08 16:24:00,32.9,28.6,30.32,WNW,296,10.0,11.0,84,0.00,,,0.00,meteohub,2013-02-08 22:24:00,
2013-02-08 16:30:00,32.9,28.2,30.32,NNW,333,3.0,10.0,83,0.00,,,0.00,meteohub,2013-02-08 22:30:00,
2013-02-08 16:35:00,32.7,28.4,30.32,WNW,302,8.0,12.0,84,0.00,,,0.00,meteohub,2013-02-08 22:35:00,
2013-02-08 16:40:00,32.7,28.4,30.32,NW,311,5.0,12.0,84,0.00,,,0.00,meteohub,2013-02-08 22:40:00,
2013-02-08 16:45:00,32.7,28.4,30.32,WNW,302,5.0,12.0,84,0.00,,,0.00,meteohub,2013-02-08 22:45:00,
2013-02-08 16:50:00,32.5,28.2,30.33,NW,309,7.0,10.0,84,0.00,,,0.00,meteohub,2013-02-08 22:50:00,
2013-02-08 16:55:00,32.5,28.6,30.33,WNW,297,6.0,11.0,85,0.00,,,0.00,meteohub,2013-02-08 22:55:00,
2013-02-08 17:00:00,32.5,28.6,30.33,WNW,303,6.0,11.0,85,0.00,,,0.00,meteohub,2013-02-08 23:00:00,
2013-02-08 17:05:00,32.5,28.6,30.34,NW,306,5.0,10.0,85,0.00,,,0.00,meteohub,2013-02-08 23:05:00,
2013-02-08 17:10:00,32.5,28.6,30.34,NW,317,0.0,10.0,85,0.00,,,0.00,meteohub,2013-02-08 23:10:00,
2013-02-08 17:15:00,32.5,28.6,30.35,WNW,299,5.0,9.0,85,0.00,,,0.00,meteohub,2013-02-08 23:15:00,
2013-02-08 17:21:00,32.5,28.6,30.35,NW,304,5.0,9.0,85,0.00,,,0.00,meteohub,2013-02-08 23:21:00,
2013-02-08 17:26:00,32.7,28.8,30.35,NW,310,1.0,9.0,85,0.00,,,0.00,meteohub,2013-02-08 23:26:00,
2013-02-08 17:31:00,32.7,28.4,30.35,NW,311,5.0,9.0,84,0.00,,,0.00,meteohub,2013-02-08 23:31:00,
2013-02-08 17:36:00,32.7,28.4,30.35,NNW,327,5.0,8.0,84,0.00,,,0.00,meteohub,2013-02-08 23:36:00,
2013-02-08 17:41:00,32.7,28.4,30.35,NNW,327,5.0,10.0,84,0.00,,,0.00,meteohub,2013-02-08 23:41:00,
2013-02-08 17:46:00,32.7,28.4,30.35,North,-999,-999.0,10.0,84,0.00,,,0.00,meteohub,2013-02-08 23:46:00,
2013-02-08 17:51:00,32.7,28.4,30.35,North,-999,-999.0,10.0,84,0.00,,,0.00,meteohub,2013-02-08 23:51:00,
2013-02-08 18:21:00,32.2,28.2,30.36,North,-999,-999.0,-999.0,85,0.00,,,0.00,meteohub,2013-02-09 00:21:00,
2013-02-08 18:26:00,32.2,28.2,30.36,North,-999,-999.0,-999.0,85,0.00,,,0.00,meteohub,2013-02-09 00:26:00,
2013-02-08 18:31:00,32.2,28.2,30.36,North,351,7.0,7.0,85,0.00,,,0.00,meteohub,2013-02-09 00:31:00,
2013-02-08 18:36:00,32.0,28.0,30.36,NNW,344,2.0,10.0,85,0.00,,,0.00,meteohub,2013-02-09 00:36:00,
2013-02-08 18:41:00,32.0,28.0,30.37,NW,325,5.0,10.0,85,0.00,,,0.00,meteohub,2013-02-09 00:41:00,
2013-02-08 18:46:00,32.0,28.0,30.37,NW,310,8.0,10.0,85,0.00,,,0.00,meteohub,2013-02-09 00:46:00,
2013-02-08 18:51:00,31.8,27.9,30.37,NW,316,3.0,10.0,85,0.00,,,0.00,meteohub,2013-02-09 00:51:00,
2013-02-08 18:56:00,31.8,27.9,30.36,NNW,339,4.0,11.0,85,0.00,,,0.00,meteohub,2013-02-09 00:56:00,
2013-02-08 19:01:00,31.8,27.9,30.37,NW,321,4.0,11.0,85,0.00,,,0.00,meteohub,2013-02-09 01:01:00,
2013-02-08 19:06:00,31.8,27.9,30.37,NNW,339,4.0,11.0,85,0.00,,,0.00,meteohub,2013-02-09 01:06:00,
2013-02-08 19:12:00,31.6,27.7,30.37,NW,314,5.0,9.0,85,0.00,,,0.00,meteohub,2013-02-09 01:12:00,
2013-02-08 19:17:00,31.6,27.7,30.37,NW,308,7.0,9.0,85,0.00,,,0.00,meteohub,2013-02-09 01:17:00,
2013-02-08 19:22:00,31.6,27.7,30.37,WNW,294,7.0,9.0,85,0.00,,,0.00,meteohub,2013-02-09 01:22:00,
2013-02-08 19:27:00,31.6,27.7,30.37,WNW,299,4.0,8.0,85,0.00,,,0.00,meteohub,2013-02-09 01:27:00,
2013-02-08 19:32:00,31.6,27.7,30.37,NNW,329,2.0,8.0,85,0.00,,,0.00,meteohub,2013-02-09 01:32:00,
2013-02-08 19:37:00,31.5,27.5,30.37,WNW,298,6.0,8.0,85,0.00,,,0.00,meteohub,2013-02-09 01:37:00,
2013-02-08 19:42:00,31.5,27.7,30.37,WNW,285,6.0,8.0,86,0.00,,,0.00,meteohub,2013-02-09 01:42:00,
2013-02-08 19:47:00,31.5,27.7,30.37,WNW,300,5.0,11.0,86,0.00,,,0.00,meteohub,2013-02-09 01:47:00,
2013-02-08 19:52:00,31.5,27.7,30.37,NW,313,5.0,11.0,86,0.00,,,0.00,meteohub,2013-02-09 01:52:00,
2013-02-08 19:57:00,31.5,27.7,30.37,NW,310,4.0,11.0,86,0.00,,,0.00,meteohub,2013-02-09 01:57:00,
2013-02-08 20:02:00,31.5,27.7,30.37,NW,317,2.0,10.0,86,0.00,,,0.00,meteohub,2013-02-09 02:02:00,
2013-02-08 20:07:00,31.5,27.7,30.37,NNW,331,3.0,10.0,86,0.00,,,0.00,meteohub,2013-02-09 02:07:00,
2013-02-08 20:12:00,31.5,27.7,30.37,NNW,347,2.0,10.0,86,0.00,,,0.00,meteohub,2013-02-09 02:12:00,
2013-02-08 20:17:00,31.5,27.7,30.37,NNW,345,2.0,7.0,86,0.00,,,0.00,meteohub,2013-02-09 02:17:00,
2013-02-08 20:22:00,31.5,27.7,30.36,North,355,7.0,7.0,86,0.00,,,0.00,meteohub,2013-02-09 02:22:00,
2013-02-08 20:27:00,31.5,27.7,30.36,North,355,2.0,8.0,86,0.00,,,0.00,meteohub,2013-02-09 02:27:00,
2013-02-08 20:32:00,31.5,27.7,30.36,North,355,4.0,8.0,86,0.00,,,0.00,meteohub,2013-02-09 02:32:00,
2013-02-08 20:37:00,31.5,27.7,30.36,NNW,342,4.0,8.0,86,0.00,,,0.00,meteohub,2013-02-09 02:37:00,
2013-02-08 20:42:00,31.5,27.7,30.36,North,10,1.0,10.0,86,0.00,,,0.00,meteohub,2013-02-09 02:42:00,
2013-02-08 20:47:00,31.5,27.7,30.36,NNE,14,1.0,10.0,86,0.00,,,0.00,meteohub,2013-02-09 02:47:00,
2013-02-08 20:52:00,31.5,27.7,30.37,North,355,1.0,6.0,86,0.00,,,0.00,meteohub,2013-02-09 02:52:00,
2013-02-08 20:57:00,31.5,27.7,30.37,NNW,332,2.0,5.0,86,0.00,,,0.00,meteohub,2013-02-09 02:57:00,
2013-02-08 21:02:00,31.5,28.0,30.38,North,355,0.0,5.0,87,0.00,,,0.00,meteohub,2013-02-09 03:02:00,
2013-02-08 21:07:00,31.5,28.0,30.38,NNW,336,4.0,6.0,87,0.00,,,0.00,meteohub,2013-02-09 03:07:00,
2013-02-08 21:12:00,31.5,28.0,30.38,NNW,333,2.0,8.0,87,0.00,,,0.00,meteohub,2013-02-09 03:12:00,
2013-02-08 21:17:00,31.5,28.0,30.38,NNW,342,3.0,8.0,87,0.00,,,0.00,meteohub,2013-02-09 03:17:00,
2013-02-08 21:23:00,31.5,28.0,30.38,North,0,0.0,8.0,87,0.00,,,0.00,meteohub,2013-02-09 03:23:00,
2013-02-08 21:28:00,31.5,28.0,30.39,NNW,332,1.0,7.0,87,0.00,,,0.00,meteohub,2013-02-09 03:28:00,
2013-02-08 21:33:00,31.5,27.7,30.38,WNW,294,2.0,6.0,86,0.00,,,0.00,meteohub,2013-02-09 03:33:00,
2013-02-08 21:38:00,31.3,27.5,30.38,North,355,0.0,6.0,86,0.00,,,0.00,meteohub,2013-02-09 03:38:00,
2013-02-08 21:43:00,31.3,27.5,30.38,NNW,344,1.0,6.0,86,0.00,,,0.00,meteohub,2013-02-09 03:43:00,
2013-02-08 21:48:00,31.3,27.5,30.39,NNW,340,4.0,6.0,86,0.00,,,0.00,meteohub,2013-02-09 03:48:00,
2013-02-08 21:53:00,31.3,27.5,30.39,NNW,338,3.0,6.0,86,0.00,,,0.00,meteohub,2013-02-09 03:53:00,
2013-02-08 21:58:00,31.3,27.5,30.39,NNW,340,2.0,6.0,86,0.00,,,0.00,meteohub,2013-02-09 03:58:00,
2013-02-08 22:03:00,31.3,27.5,30.38,NNW,340,2.0,6.0,86,0.00,,,0.00,meteohub,2013-02-09 04:03:00,
2013-02-08 22:09:00,31.3,27.9,30.38,North,355,2.0,6.0,87,0.00,,,0.00,meteohub,2013-02-09 04:09:00,
2013-02-08 22:14:00,31.3,27.9,30.38,NNE,12,4.0,6.0,87,0.00,,,0.00,meteohub,2013-02-09 04:14:00,
2013-02-08 22:19:00,31.3,27.9,30.38,North,5,4.0,7.0,87,0.00,,,0.00,meteohub,2013-02-09 04:19:00,
2013-02-08 22:24:00,31.3,27.9,30.38,North,9,1.0,8.0,87,0.00,,,0.00,meteohub,2013-02-09 04:24:00,
2013-02-08 22:29:00,31.1,27.3,30.38,NE,39,1.0,8.0,86,0.00,,,0.00,meteohub,2013-02-09 04:29:00,
2013-02-08 22:34:00,31.1,27.3,30.38,NE,49,2.0,8.0,86,0.00,,,0.00,meteohub,2013-02-09 04:34:00,
2013-02-08 22:39:00,31.1,27.3,30.38,NE,36,2.0,7.0,86,0.00,,,0.00,meteohub,2013-02-09 04:39:00,
2013-02-08 22:44:00,30.9,27.5,30.38,NE,34,2.0,8.0,87,0.00,,,0.00,meteohub,2013-02-09 04:44:00,
2013-02-08 22:50:00,30.9,27.5,30.38,North,11,5.0,8.0,87,0.00,,,0.00,meteohub,2013-02-09 04:50:00,
2013-02-08 22:55:00,30.9,27.5,30.38,North,355,0.0,8.0,87,0.00,,,0.00,meteohub,2013-02-09 04:55:00,
2013-02-08 23:00:00,30.9,27.5,30.38,North,11,2.0,6.0,87,0.00,,,0.00,meteohub,2013-02-09 05:00:00,
2013-02-08 23:01:00,30.9,27.5,30.38,NE,37,4.0,6.0,87,0.00,,,0.00,meteohub,2013-02-09 05:01:00,
2013-02-08 23:02:00,30.9,27.5,30.38,NE,38,4.0,6.0,87,0.00,,,0.00,meteohub,2013-02-09 05:02:00,
2013-02-08 23:07:00,30.7,27.3,30.39,North,10,1.0,6.0,87,0.00,,,0.00,meteohub,2013-02-09 05:07:00,
2013-02-08 23:12:00,30.7,27.3,30.39,NNE,28,0.0,6.0,87,0.00,,,0.00,meteohub,2013-02-09 05:12:00,
2013-02-08 23:17:00,30.7,27.3,30.39,NNE,28,0.0,6.0,87,0.00,,,0.00,meteohub,2013-02-09 05:17:00,
2013-02-08 23:22:00,30.7,27.3,30.39,NE,39,2.0,2.0,87,0.00,,,0.00,meteohub,2013-02-09 05:22:00,
2013-02-08 23:27:00,30.6,27.1,30.38,NE,37,1.0,4.0,87,0.00,,,0.00,meteohub,2013-02-09 05:27:00,
2013-02-08 23:32:00,30.6,27.1,30.39,NE,46,0.0,4.0,87,0.00,,,0.00,meteohub,2013-02-09 05:32:00,
2013-02-08 23:37:00,30.6,27.1,30.39,NE,37,0.0,4.0,87,0.00,,,0.00,meteohub,2013-02-09 05:37:00,
2013-02-08 23:42:00,30.6,27.1,30.40,NE,37,0.0,3.0,87,0.00,,,0.00,meteohub,2013-02-09 05:42:00,
2013-02-08 23:48:00,30.6,27.1,30.39,NNE,14,0.0,3.0,87,0.00,,,0.00,meteohub,2013-02-09 05:48:00,
2013-02-08 23:53:00,30.6,27.5,30.39,NNE,28,2.0,4.0,88,0.00,,,0.00,meteohub,2013-02-09 05:53:00,
2013-02-08 23:58:00,30.4,27.3,30.39,NNE,29,1.0,4.0,88,0.00,,,0.00,meteohub,2013-02-09 05:58:00,